Location: Newark
(20.1200°S, 168.9600°E)
Time: 21:51:09
(UTC+00:00)

N. Korean satellite - Visible Passes

Search period start: 11 November 2019 00:00
Search period end: 21 November 2019 00:00
Orbit: 456 x 506 km, 97.2° (Epoch: 10 November)

Date Brightness Start Highest point End Pass type
(mag) Time Alt. Az. Time Alt. Az. Time Alt. Az.
11 Nov 10.3 07:21:01 10° SW 07:22:26 12° WSW 07:23:51 10° W visible
12 Nov 9.9 17:19:29 10° ENE 17:21:48 16° ESE 17:24:06 10° SE visible
16 Nov 10.2 17:12:12 10° E 17:13:43 12° ESE 17:15:13 10° SE visible
19 Nov 9.6 17:28:01 10° NE 17:30:48 22° ESE 17:33:35 10° SSE visible
